Location: ?
(35.4214°N, 139.3011°E)
Time: 21:19:19
(UTC+00:00)

OAO 2 Rocket - Pass Details

Date: 14 July 2020
Orbit: 676 x 746 km, 35.0° (Epoch: 10 August)

Event Time Altitude Azimuth Distance (km) Brightness Sun altitude
Rises 11:46:41 0° 277° (W) 3,136 7.5 -18.5°
Reaches altitude 10° 11:49:20 10° 267° (W) 2,224 6.4 -18.9°
Maximum altitude 11:53:53 30° 207° (SSW) 1,289 4.5 -19.6°
Enters shadow 11:54:58 28° 184° (S) 1,362 4.4 -19.7°
